When you browse on this site, cookies collect data to enhance your experience and personalize the content and advertising you see.
Visit our Privacy Policy to learn more. By continuing to use the site, you agree to this use of cookies and data.
  • In Schweiz
  • Länderverzeichnis
  • Für 7 Tage
  • Wassertemperatur
  • Wetterkarte
  • Widgets
  • user-avatar
    Anmelden

    Stündliche Wetter Banjul

    Heute, 25 Mai, Montag

    Zeit Temperatur Niederschläge Wind Luftdruck Luftfeuchtigkeit
    00:00 +23°C° 0 mm 4 m/S 759 mmHg 88%
    01:00 +23°C° 0 mm 4 m/S 759 mmHg 88%
    02:00 +23°C° 0 mm 5 m/S 758 mmHg 89%
    03:00 +23°C° 0 mm 4 m/S 758 mmHg 90%
    04:00 +22°C° 0 mm 3 m/S 758 mmHg 91%
    05:00 +22°C° 0 mm 3 m/S 758 mmHg 92%
    06:00 +24°C° 0 mm 3 m/S 759 mmHg 83%
    07:00 +26°C° 0 mm 4 m/S 759 mmHg 74%
    08:00 +27°C° 0 mm 4 m/S 760 mmHg 64%
    09:00 +30°C° 0 mm 4 m/S 760 mmHg 55%
    10:00 +33°C° 0 mm 3 m/S 759 mmHg 45%
    11:00 +35°C° 0 mm 3 m/S 759 mmHg 35%
    12:00 +36°C° 0 mm 4 m/S 758 mmHg 34%
    13:00 +37°C° 0 mm 5 m/S 758 mmHg 33%
    14:00 +39°C° 0 mm 6 m/S 757 mmHg 32%
    15:00 +35°C° 0 mm 6 m/S 757 mmHg 40%
    16:00 +33°C° 0 mm 7 m/S 756 mmHg 47%
    17:00 +31°C° 0 mm 8 m/S 756 mmHg 55%
    18:00 +28°C° 0 mm 7 m/S 757 mmHg 62%
    19:00 +27°C° 0 mm 6 m/S 757 mmHg 70%
    20:00 +26°C° 0 mm 6 m/S 758 mmHg 77%
    21:00 +25°C° 0 mm 5 m/S 758 mmHg 79%
    22:00 +25°C° 0 mm 4 m/S 759 mmHg 81%
    23:00 +23°C° 0 mm 4 m/S 759 mmHg 84%

    Morgen, 26 Mai, Dienstag

    Zeit Temperatur Niederschläge Wind Luftdruck Luftfeuchtigkeit
    00:00 +23°C° 0 mm 4 m/S 759 mmHg 85%
    01:00 +23°C° 0 mm 4 m/S 758 mmHg 86%
    02:00 +23°C° 0 mm 4 m/S 758 mmHg 86%
    03:00 +23°C° 0 mm 5 m/S 758 mmHg 86%
    04:00 +23°C° 0 mm 5 m/S 758 mmHg 86%
    05:00 +22°C° 0 mm 5 m/S 758 mmHg 86%
    06:00 +25°C° 0 mm 5 m/S 758 mmHg 77%
    07:00 +26°C° 0 mm 5 m/S 759 mmHg 69%
    08:00 +28°C° 0 mm 4 m/S 759 mmHg 60%
    09:00 +30°C° 0 mm 4 m/S 759 mmHg 52%
    10:00 +33°C° 0 mm 4 m/S 759 mmHg 44%
    11:00 +35°C° 0 mm 4 m/S 759 mmHg 35%
    12:00 +35°C° 0 mm 5 m/S 758 mmHg 36%
    13:00 +35°C° 0 mm 6 m/S 757 mmHg 37%
    14:00 +36°C° 0 mm 6 m/S 756 mmHg 38%
    15:00 +34°C° 0 mm 7 m/S 756 mmHg 45%
    16:00 +32°C° 0 mm 7 m/S 756 mmHg 52%
    17:00 +29°C° 0 mm 8 m/S 755 mmHg 58%
    18:00 +28°C° 0 mm 7 m/S 756 mmHg 66%
    19:00 +26°C° 0 mm 6 m/S 757 mmHg 73%
    20:00 +25°C° 0 mm 5 m/S 757 mmHg 80%
    21:00 +25°C° 0 mm 4 m/S 758 mmHg 83%
    22:00 +24°C° 0 mm 3 m/S 758 mmHg 86%
    23:00 +24°C° 0 mm 3 m/S 759 mmHg 89%

    übermorgen, 27 Mai, Mittwoch

    Zeit Temperatur Niederschläge Wind Luftdruck Luftfeuchtigkeit
    00:00 +24°C° 0 mm 3 m/S 758 mmHg 90%
    01:00 +24°C° 0 mm 3 m/S 758 mmHg 90%
    02:00 +23°C° 0 mm 4 m/S 758 mmHg 91%
    03:00 +22°C° 0 mm 4 m/S 758 mmHg 91%
    04:00 +22°C° 0 mm 3 m/S 758 mmHg 91%
    05:00 +22°C° 0 mm 3 m/S 758 mmHg 91%
    06:00 +25°C° 0 mm 3 m/S 758 mmHg 81%
    07:00 +26°C° 0 mm 3 m/S 758 mmHg 71%
    08:00 +28°C° 0 mm 3 m/S 759 mmHg 62%
    09:00 +30°C° 0 mm 3 m/S 758 mmHg 53%
    10:00 +33°C° 0 mm 3 m/S 758 mmHg 45%
    11:00 +35°C° 0 mm 3 m/S 758 mmHg 36%
    12:00 +36°C° 0 mm 4 m/S 757 mmHg 36%
    13:00 +36°C° 0 mm 5 m/S 757 mmHg 35%
    14:00 +37°C° 0 mm 5 m/S 756 mmHg 35%
    15:00 +35°C° 0 mm 6 m/S 756 mmHg 41%
    16:00 +33°C° 0 mm 6 m/S 756 mmHg 48%
    17:00 +30°C° 0 mm 6 m/S 756 mmHg 54%
    18:00 +29°C° 0 mm 6 m/S 756 mmHg 62%
    19:00 +27°C° 0 mm 5 m/S 757 mmHg 71%
    20:00 +26°C° 0 mm 5 m/S 758 mmHg 79%
    21:00 +25°C° 0 mm 4 m/S 758 mmHg 82%
    22:00 +25°C° 0 mm 4 m/S 758 mmHg 85%
    23:00 +25°C° 0 mm 3 m/S 759 mmHg 87%

    28 Mai, Donnerstag

    Zeit Temperatur Niederschläge Wind Luftdruck Luftfeuchtigkeit
    00:00 +23°C° 0 mm 4 m/S 758 mmHg 88%
    01:00 +23°C° 0 mm 4 m/S 758 mmHg 89%
    02:00 +23°C° 0 mm 4 m/S 758 mmHg 90%
    03:00 +23°C° 0 mm 4 m/S 758 mmHg 90%
    04:00 +23°C° 0 mm 4 m/S 758 mmHg 91%
    05:00 +24°C° 0 mm 3 m/S 758 mmHg 92%
    06:00 +25°C° 0 mm 3 m/S 758 mmHg 82%
    07:00 +27°C° 0 mm 3 m/S 758 mmHg 73%
    08:00 +28°C° 0 mm 3 m/S 759 mmHg 64%
    09:00 +30°C° 0 mm 3 m/S 759 mmHg 55%
    10:00 +33°C° 0 mm 3 m/S 759 mmHg 46%
    11:00 +35°C° 0 mm 4 m/S 759 mmHg 37%
    12:00 +36°C° 0 mm 4 m/S 758 mmHg 37%
    13:00 +36°C° 0 mm 5 m/S 757 mmHg 36%
    14:00 +36°C° 0 mm 5 m/S 757 mmHg 35%
    15:00 +35°C° 0 mm 5 m/S 756 mmHg 40%
    16:00 +33°C° 0 mm 6 m/S 756 mmHg 44%
    17:00 +32°C° 0 mm 6 m/S 756 mmHg 49%
    18:00 +29°C° 0 mm 6 m/S 756 mmHg 57%
    19:00 +28°C° 0 mm 6 m/S 757 mmHg 65%
    20:00 +26°C° 0 mm 5 m/S 757 mmHg 73%
    21:00 +26°C° 0 mm 5 m/S 758 mmHg 76%
    22:00 +26°C° 0 mm 4 m/S 758 mmHg 78%
    23:00 +25°C° 0 mm 4 m/S 759 mmHg 81%

    29 Mai, Freitag

    Zeit Temperatur Niederschläge Wind Luftdruck Luftfeuchtigkeit
    00:00 +25°C° 0 mm 4 m/S 758 mmHg 83%
    01:00 +25°C° 0 mm 3 m/S 758 mmHg 85%
    02:00 +24°C° 0 mm 3 m/S 757 mmHg 87%
    03:00 +24°C° 0 mm 3 m/S 757 mmHg 88%
    04:00 +24°C° 0 mm 2 m/S 757 mmHg 88%
    05:00 +24°C° 0 mm 2 m/S 757 mmHg 89%
    06:00 +25°C° 0 mm 2 m/S 758 mmHg 80%
    07:00 +27°C° 0 mm 2 m/S 758 mmHg 70%
    08:00 +29°C° 0 mm 2 m/S 758 mmHg 60%
    09:00 +31°C° 0 mm 2 m/S 758 mmHg 52%
    10:00 +34°C° 0 mm 3 m/S 758 mmHg 44%
    11:00 +36°C° 0 mm 3 m/S 758 mmHg 35%
    12:00 +36°C° 0 mm 4 m/S 757 mmHg 35%
    13:00 +36°C° 0 mm 5 m/S 756 mmHg 35%
    14:00 +36°C° 0 mm 5 m/S 756 mmHg 35%
    15:00 +35°C° 0 mm 6 m/S 756 mmHg 39%
    16:00 +33°C° 0 mm 6 m/S 755 mmHg 44%
    17:00 +32°C° 0 mm 7 m/S 755 mmHg 48%
    18:00 +29°C° 0 mm 6 m/S 756 mmHg 57%
    19:00 +28°C° 0 mm 6 m/S 756 mmHg 65%
    20:00 +27°C° 0 mm 5 m/S 757 mmHg 73%
    21:00 +26°C° 0 mm 4 m/S 757 mmHg 75%
    22:00 +26°C° 0 mm 4 m/S 757 mmHg 76%
    23:00 +26°C° 0 mm 3 m/S 758 mmHg 78%

    30 Mai, Samstag

    Zeit Temperatur Niederschläge Wind Luftdruck Luftfeuchtigkeit
    00:00 +26°C° 0 mm 3 m/S 758 mmHg 79%
    01:00 +25°C° 0 mm 2 m/S 757 mmHg 80%
    02:00 +25°C° 0 mm 2 m/S 757 mmHg 81%
    03:00 +25°C° 0 mm 2 m/S 757 mmHg 82%
    04:00 +25°C° 0 mm 2 m/S 757 mmHg 83%
    05:00 +25°C° 0 mm 2 m/S 757 mmHg 84%
    06:00 +26°C° 0 mm 2 m/S 758 mmHg 74%
    07:00 +28°C° 0 mm 2 m/S 758 mmHg 65%
    08:00 +30°C° 0 mm 3 m/S 758 mmHg 55%
    09:00 +31°C° 0 mm 3 m/S 758 mmHg 48%
    10:00 +34°C° 0 mm 3 m/S 758 mmHg 41%
    11:00 +36°C° 0 mm 4 m/S 758 mmHg 34%
    12:00 +36°C° 0 mm 4 m/S 757 mmHg 34%
    13:00 +36°C° 0 mm 5 m/S 757 mmHg 34%
    14:00 +36°C° 0 mm 5 m/S 756 mmHg 34%
    15:00 +35°C° 0 mm 5 m/S 756 mmHg 37%
    16:00 +34°C° 0 mm 5 m/S 756 mmHg 41%
    17:00 +32°C° 0 mm 5 m/S 756 mmHg 44%
    18:00 +30°C° 0 mm 5 m/S 756 mmHg 51%
    19:00 +29°C° 0 mm 5 m/S 756 mmHg 58%
    20:00 +27°C° 0 mm 6 m/S 757 mmHg 65%
    21:00 +27°C° 0 mm 6 m/S 757 mmHg 66%
    22:00 +27°C° 0 mm 5 m/S 757 mmHg 68%
    23:00 +26°C° 0 mm 5 m/S 758 mmHg 70%
    Mehr zeigen